Torna al catalogo

STARLINK-38179

AttivoComunicazioniSSO
NORAD 100150·PAYLOAD·🇺🇸 United States

Lanciato Jul 25, 2026 da Vandenberg Space Force Base

Loading…

Prossimi Passaggi (prossime 24 ore)

TLE

AggiornatoSource: Space-Track

Epoca: Sep 14, 2026, 15:18 UTC

1 A0150U 26171C   26257.63793281 -.00027609  00000-0 -85551-3 0  9997
2 A0150  97.2838 290.2576 0001331  84.4617 275.6778 15.33461964  8006

Traccia STARLINK-38179 in tempo reale con AllMySat

Download on the App Store